Miscellaneous Local Product
Issued by NWS Hastings, NE

Home | Current Version | Previous Version | Text Only | Print | Product List | Glossary On
Versions: 1 2 3 4 5 6 7 8 9 10 11 12 13 14 15 16 17 18 19 20 21 22 23 24 25 26 27 28 29 30 31 32 33 34 35 36 37 38 39 40 41 42 43 44 45 46 47 48 49 50
000
AXUS43 KGID 261702
MISGRI

GID CWA HOURLY WEATHER ROUNDUP
NATIONAL WEATHER SERVICE HASTINGS NE
1200 PM CDT MON JUN 26 2017

NOTE: "FAIR" INDICATES FEW OR NO CLOUDS BELOW 12,000 FEET WITH NO
SIGNIFICANT WEATHER AND/OR OBSTRUCTIONS TO VISIBILITY.

...SOUTH CENTRAL NEBRASKA...

CITY           SKY/WX    TMP DP  RH WIND       PRES   REMARKS
GRAND ISLAND   MOSUNNY   73  61  65 NW10      30.17F
HASTINGS       CLOUDY    72  58  61 W9        30.19S
KEARNEY        PTSUNNY   73  59  60 NW3       30.17F
ORD            SUNNY     75  43  31 NE14G20   30.17F
YORK           PTSUNNY   72  57  60 W10       30.17S
AURORA         PTSUNNY   73  59  60 N7        30.16F
LEXINGTON      CLOUDY    72  60  67 CALM      30.18F
HOLDREGE       CLOUDY    68  58  71 CALM      30.17F
HEBRON         MOSUNNY   75  58  55 W3        30.17F

...NEBRASKA PANHANDLE...

CITY           SKY/WX    TMP DP  RH WIND       PRES   REMARKS
CHADRON        SUNNY     73  39  29 E10       30.21F
ALLIANCE       SUNNY     73  41  31 E12       30.23F
SCOTTSBLUFF    SUNNY     75  50  41 E9        30.22F
SIDNEY         MOSUNNY   78  54  43 VRB5      30.23F

...WESTERN AND NORTH CENTRAL NEBRASKA...

CITY           SKY/WX    TMP DP  RH WIND       PRES   REMARKS
VALENTINE      SUNNY     74  37  26 NE16      30.22F
AINSWORTH      SUNNY     71  43  36 NE12G23   30.23S
ONEILL         SUNNY     69  46  44 N7G18     30.23S
BROKEN BOW     PTSUNNY   72  54  53 NE7       30.19S
IMPERIAL       SUNNY     76  57  51 VRB6      30.20F
NORTH PLATTE   TSTM      67  62  84 N7        30.20R
MCCOOK         SUNNY     76  60  57 VRB6      30.17F

...EASTERN NEBRASKA...

CITY           SKY/WX    TMP DP  RH WIND       PRES   REMARKS
NORFOLK        MOSUNNY   70  50  49 NE14      30.19R
SO SIOUX CITY  SUNNY     71  51  49 NE7       30.19F
TEKAMAH        SUNNY     70  53  54 MISG      30.18S
COLUMBUS       MOSUNNY   72  55  55 VRB7      30.17F
ALBION         SUNNY     74  48  38 NE10      30.18S
OMAHA EPPLEY   MOSUNNY   68  57  68 S7        30.18F
OFFUTT AFB     MOSUNNY   66  57  72 CALM      30.17F
MILLARD        MOSUNNY   69  58  69 S5        30.18F
LINCOLN        SUNNY     68  60  75 S7        30.18F
NEBRASKA CITY  CLOUDY    62  62  97 S10       30.19F
BEATRICE       CLOUDY    68  57  67 SE9       30.18F
FALLS CITY     TSTM      59  56  89 S14       30.21R

...NORTHERN KANSAS...

CITY           SKY/WX    TMP DP  RH WIND       PRES   REMARKS
GOODLAND       SUNNY     76  61  59 NW5       30.20F
HILL CITY      MOSUNNY   71  62  73 VRB3      30.19F
NORTON         SUNNY     79  55  44 CALM      30.17F
PHILLIPSBURG   SUNNY     77  57  50 CALM      30.17F
SMITH CENTER   SUNNY     75  55  50 SW7       30.17F
HAYS           SUNNY     75  61  61 SW8       30.18F
RUSSELL        PTSUNNY   74  58  57 SW6       30.16F
CONCORDIA      PTSUNNY   75  59  57 SW8       30.16F
SALINA         PTSUNNY   80  59  48 SW9       30.16F
TOPEKA         PTSUNNY   69  56  62 E16       30.21F



USA.gov is the U.S. government's official web portal to all federal, state and local government web resources and services.